Zurück zum Katalog

STARLINK-11441

AktivKommunikationVLEO
NORAD 62413·PAYLOAD·🇺🇸 United States

Gestartet Dec 23, 2024 von Cape Canaveral Space Force Station

Loading…

Nächste Überflüge (nächste 24 Stunden)

TLE

AktuellSource: CelesTrak SupGP

Epoche: Sep 14, 2026, 22:21 UTC

1 62413C 24249E   26257.93173611  .00003454  00000+0  26839-4 0  2574
2 62413  43.0006 106.6802 0001699 262.4859 208.3418 15.70827450    11

Verfolge STARLINK-11441 in Echtzeit mit AllMySat

Download on the App Store